Tracking 17842 objects as of 29-August-2016
HD Live streaming from Space Station
objects crossing your sky now

INTELSAT 2-F4

Track INTELSAT 2-F4 now!
INTELSAT 2-F4 is classified as:


NORAD ID: 2969
Int'l Code: 1967-094A
Perigee: 35,724.1 km
Apogee: 35,877.1 km
Inclination: 4.4 °
Period: 1,436.4 minutes
Semi major axis: 42171 km
RCS: 2.5118 m2 (large)
Launch date: September 28, 1967
Source: International Telecommunications Satellite Organization (ITSO)
Launch site: AIR FORCE EASTERN TEST RANGE (AFETR)
Your satellite tracking list
Your tracking list is empty





NASA's NSSDC Master Catalog

Two Line Element Set (TLE):
1  2969U 67094A   16241.17120032 -.00000276 +00000-0 +00000-0 0  9998
2  2969 004.3861 299.6949 0018143 226.4953 196.8477 01.00247305079422
Source of the keplerian elements: AFSPC

N2YO: 794